Theta_e
315 315 316 318 318 319 320 320 320 320 320 317 316 318 317 317 317 318 320 321 324 325 322 325 331 329 327 326 327 325 325 330 328 325 327 330 330 328 328 327 326 329 333 334 334 333 330 327 326 325 323 321 321 322 321 317 313 313 312 311 314 318 322 326 329 329 329 326 326 322 320 324 322 322 326 327 328 327 327 326 326 326 325 326 325 320 314 312 313 316 314 311 311 311 311 312 314
315 315 317 318 318 320 322 321 320 318 317 315 316 318 317 317 318 320 321 321 323 323 321 327 330 326 325 324 326 325 327 330 325 325 329 330 330 328 328 327 326 329 332 333 333 333 331 327 327 326 324 322 320 321 321 318 314 314 313 312 314 321 324 325 327 328 329 330 329 324 322 324 322 323 326 328 327 326 327 327 327 327 326 328 329 326 319 312 310 313 314 313 312 312 313 313 313
315 317 317 319 319 321 322 321 319 317 315 314 316 317 316 317 319 321 321 320 321 321 324 328 328 324 324 324 325 325 328 329 323 328 331 331 330 328 328 327 327 329 331 332 332 332 331 327 327 326 325 322 320 321 321 319 315 314 314 313 314 319 322 325 328 329 330 331 329 327 325 325 323 323 324 325 324 325 327 327 329 329 328 328 328 326 320 313 312 316 317 317 316 316 318 318 317
316 318 318 319 321 322 322 321 320 317 315 314 315 317 317 319 320 319 320 321 320 322 326 329 327 324 323 324 325 323 329 329 325 331 333 332 331 327 328 327 326 330 331 331 331 331 329 327 327 326 325 324 321 320 321 319 315 313 314 314 314 315 318 323 328 329 329 330 329 328 328 327 325 324 324 322 322 326 327 328 329 329 326 325 325 322 321 321 320 319 318 318 319 320 322 322 321
317 319 318 321 323 323 322 320 320 318 315 316 316 317 318 318 319 319 321 321 320 321 325 328 328 325 325 325 325 325 330 330 329 333 334 333 331 327 328 327 326 330 330 329 330 330 328 326 327 326 325 325 322 320 320 319 316 314 314 315 315 316 319 321 325 328 328 329 328 329 330 328 327 325 322 318 320 325 326 325 325 324 321 319 323 323 324 327 325 322 319 320 321 322 322 323 322
318 319 319 321 322 321 320 318 317 318 316 317 317 317 317 318 320 321 322 322 319 319 323 326 326 326 328 326 324 325 328 330 331 333 334 333 329 327 327 326 327 329 330 329 328 329 329 326 326 327 326 325 323 321 320 320 318 316 314 315 316 316 317 317 322 327 328 329 328 329 330 328 327 324 320 317 317 322 324 321 319 319 318 320 324 325 326 325 322 320 319 321 322 321 321 322 322
319 319 320 320 320 320 321 318 317 318 316 315 316 317 317 318 320 323 322 321 318 317 321 324 324 325 326 326 325 324 325 330 331 333 334 332 328 327 326 325 328 328 330 329 326 329 329 326 326 327 326 326 325 322 320 320 320 319 314 314 316 316 314 312 318 326 327 329 329 329 329 328 327 322 320 318 315 317 320 320 319 321 321 319 320 321 324 322 319 320 321 321 321 322 322 323 323
319 320 320 320 320 319 321 319 318 318 314 312 314 315 316 318 321 323 322 321 318 317 321 322 322 324 323 324 329 326 325 329 329 331 331 330 328 326 325 325 328 329 331 329 326 329 328 326 327 327 327 326 326 324 321 320 321 320 318 314 315 317 315 312 315 323 326 327 328 329 329 328 327 323 320 319 317 315 317 320 323 324 322 319 321 322 323 321 319 320 321 321 321 322 322 322 323
320 320 320 321 320 318 319 318 317 316 314 313 313 314 315 317 321 323 321 319 317 318 321 322 321 322 322 323 329 327 326 328 327 330 330 329 328 326 326 325 327 329 330 328 326 329 328 326 327 327 327 327 327 326 323 321 321 321 320 318 315 316 317 315 313 317 323 326 327 328 328 327 325 322 319 317 317 315 316 322 325 324 321 320 321 321 322 322 321 320 319 320 321 321 320 321 323
320 319 320 321 320 318 316 316 317 315 314 314 314 315 315 317 321 322 321 318 317 320 321 321 320 319 322 325 328 327 326 327 328 331 330 330 328 327 326 325 327 328 329 328 326 329 329 327 328 328 327 327 327 327 325 322 321 321 322 320 318 316 317 317 315 314 317 322 324 326 326 323 322 319 316 315 316 314 313 319 322 321 319 319 318 319 321 321 321 320 317 318 319 320 320 321 322
320 319 319 320 318 317 316 316 317 316 315 315 315 315 315 316 319 319 318 317 317 321 321 320 319 319 322 325 327 326 324 327 330 332 329 329 329 327 327 326 326 327 329 328 327 329 329 328 328 328 327 327 327 327 327 325 323 322 322 322 320 318 317 318 317 315 314 316 320 322 320 317 316 314 313 313 314 314 311 313 317 318 318 317 317 319 320 319 320 319 317 317 318 319 320 321 321
321 320 320 320 318 318 316 316 317 317 316 316 316 315 315 316 318 319 317 318 318 320 321 319 319 320 322 324 325 324 324 328 331 331 329 329 329 328 328 327 326 327 329 328 328 328 328 330 330 328 328 327 327 326 326 327 325 323 322 322 322 321 320 319 318 318 315 313 314 314 313 312 311 309 309 310 313 315 312 312 316 317 317 316 316 317 317 317 318 318 317 318 318 318 320 320 321
321 322 322 319 317 318 317 316 317 318 317 317 317 315 315 316 318 319 318 318 318 320 320 318 318 318 321 322 322 324 327 330 331 330 328 328 329 329 328 328 327 327 329 328 327 327 327 329 332 331 328 327 327 327 326 326 326 325 323 322 322 322 321 321 318 318 316 313 311 310 309 308 307 306 307 308 311 313 310 310 314 315 315 316 317 317 316 315 316 317 318 318 318 318 320 320 321
320 321 322 319 314 316 317 317 317 317 317 317 316 314 315 316 317 317 317 318 318 320 319 318 318 318 320 319 321 326 329 330 330 329 328 329 329 329 329 329 329 328 329 329 328 327 326 327 332 333 329 330 330 328 326 326 326 327 326 323 322 322 322 322 320 319 319 316 313 310 309 308 306 306 306 306 309 311 309 307 312 314 315 317 317 317 317 315 315 316 317 317 317 318 319 320 320
319 319 320 319 315 316 316 317 318 317 317 317 315 314 315 315 315 315 317 318 318 318 317 318 318 317 318 318 321 325 328 329 329 329 329 330 329 329 330 330 330 330 330 331 330 328 326 326 329 331 330 332 331 330 329 326 325 326 326 325 323 322 322 322 322 321 321 320 316 313 310 308 306 306 306 307 308 309 307 306 310 314 316 316 317 318 317 316 315 315 316 316 317 317 318 319 320
318 318 320 320 317 317 316 316 317 317 317 317 314 314 316 315 314 315 316 317 317 316 317 318 318 317 316 317 318 321 325 328 329 329 329 330 330 330 330 331 331 331 331 331 331 331 328 326 326 328 329 332 332 331 331 329 326 325 326 327 325 324 323 322 323 322 322 322 320 316 313 310 307 306 306 306 307 307 306 306 309 315 316 316 318 318 318 317 316 315 315 315 316 316 317 318 319
318 318 320 319 317 318 317 316 317 317 316 315 312 314 317 315 313 314 315 315 316 316 316 318 318 317 316 316 316 318 323 328 329 329 329 330 330 330 331 331 331 331 332 331 332 332 331 328 326 326 326 329 331 331 331 331 328 326 326 326 327 326 324 323 323 323 323 323 322 318 317 313 308 307 306 306 306 306 306 306 309 314 315 316 318 319 319 319 318 316 315 315 316 316 317 317 317
318 320 319 318 318 318 317 317 316 316 317 314 312 315 318 316 313 313 314 314 315 315 316 317 318 317 316 316 316 317 321 327 329 329 329 330 330 330 331 331 331 331 331 331 331 332 331 330 328 327 326 326 329 331 331 332 329 327 326 325 326 327 326 325 324 324 324 324 323 321 319 316 313 309 307 307 307 306 306 306 308 312 314 316 317 319 319 319 319 318 316 315 315 316 317 317 318
318 320 319 318 319 316 315 316 316 315 316 315 312 315 317 317 314 313 315 315 315 315 316 316 317 317 316 315 316 318 319 324 329 328 328 329 329 329 329 330 331 330 330 330 330 331 331 330 330 328 328 327 328 329 330 331 329 328 328 326 326 326 326 326 325 325 324 324 324 323 321 319 317 313 310 309 308 307 307 307 308 310 313 315 316 317 319 319 319 319 318 317 316 316 317 318 318
317 319 319 320 319 315 312 314 314 313 314 315 313 314 315 315 314 314 315 316 315 316 317 316 317 317 317 315 315 317 318 320 325 328 327 327 329 328 327 328 329 329 330 329 330 331 331 330 330 329 329 329 328 330 330 330 329 329 330 329 327 326 326 326 326 326 325 325 324 325 324 321 319 316 314 311 310 309 308 308 309 310 312 313 315 316 318 319 319 319 319 318 317 316 317 318 318
317 317 318 318 316 315 313 312 313 311 313 314 313 313 314 313 313 314 315 315 315 316 316 316 317 317 317 316 316 317 317 317 321 327 329 327 328 329 328 327 327 328 329 329 330 330 331 331 331 331 330 329 329 330 330 330 330 330 331 331 330 328 327 326 326 326 326 326 325 325 325 324 321 319 317 314 312 312 311 311 310 311 312 312 314 316 317 318 319 319 319 319 318 317 317 317 318
317 314 314 313 313 315 313 310 312 311 312 313 312 313 314 313 313 314 315 315 316 316 315 315 316 316 316 316 316 316 316 315 316 323 326 325 325 327 328 328 327 328 329 328 329 329 330 331 332 332 331 331 331 331 331 331 330 331 332 332 331 331 329 327 326 326 326 326 326 326 326 325 324 322 320 317 315 315 314 314 313 313 313 313 314 315 316 317 318 318 319 319 319 318 317 317 318
317 314 311 311 311 313 312 310 311 311 312 313 313 314 313 313 313 313 314 316 316 315 315 315 315 315 315 316 316 316 316 315 314 315 318 320 320 320 322 324 324 326 326 325 326 327 329 330 331 332 332 332 332 332 332 332 332 331 332 332 332 332 331 330 328 326 326 326 326 326 327 326 326 324 322 320 318 317 317 316 316 316 315 315 315 316 316 317 318 318 319 319 320 319 318 317 318
316 315 312 311 310 311 311 311 311 311 312 313 313 313 313 314 314 312 313 315 315 315 314 314 315 314 314 315 316 316 316 314 314 313 313 316 316 316 319 320 321 324 322 321 323 324 326 328 329 331 332 332 333 333 333 334 333 332 332 332 332 332 332 332 331 329 327 326 326 326 327 327 327 326 324 322 320 319 319 318 318 318 317 317 317 317 317 317 318 319 319 320 320 320 319 319 318
315 314 312 310 309 309 310 311 310 310 311 312 312 313 313 313 313 312 313 314 314 315 314 314 314 314 314 314 315 315 315 315 314 314 314 316 317 319 319 318 320 323 320 318 319 319 320 323 326 328 329 331 333 333 333 333 333 333 332 331 332 332 332 332 331 331 330 328 326 325 326 327 327 327 326 324 323 321 321 320 319 319 319 318 318 318 318 318 319 319 320 320 321 321 321 320 319
315 313 311 311 309 308 310 309 309 310 310 311 312 312 311 311 311 313 314 314 314 314 314 314 314 314 314 314 315 314 315 315 315 314 314 314 315 317 316 315 316 317 317 317 316 315 315 317 321 324 326 328 331 332 332 332 332 332 331 331 331 331 331 331 331 331 331 330 329 326 325 326 326 327 327 326 325 324 323 322 322 321 320 319 319 319 319 319 319 320 320 321 321 321 321 320 320
312 311 311 310 309 308 309 309 308 309 309 310 312 312 311 310 311 314 314 313 314 314 314 314 314 314 314 314 314 314 314 315 315 315 314 314 314 314 313 313 313 313 314 315 314 315 314 315 316 318 321 323 327 329 330 331 331 331 330 330 329 327 326 327 329 329 329 329 329 328 327 326 326 326 327 327 327 326 325 324 323 322 321 321 320 320 320 320 320 320 321 321 321 321 321 320 320
312 311 312 310 310 310 310 310 309 310 310 310 312 312 311 310 311 314 314 313 313 314 314 314 314 314 314 314 314 314 314 314 315 315 314 314 314 314 314 313 313 313 314 314 314 314 314 315 314 315 316 318 322 325 328 329 330 330 330 330 326 324 325 325 325 327 328 327 327 328 329 328 327 327 326 327 327 327 326 325 325 324 323 322 321 321 321 321 321 322 322 322 321 321 321 321 320
312 313 314 311 312 312 310 311 310 311 312 310 311 312 312 311 312 314 313 313 313 313 313 313 313 314 313 314 314 314 314 314 314 314 314 314 314 314 314 314 314 313 314 314 314 314 314 314 314 314 315 316 317 321 326 327 329 330 329 329 327 326 331 330 325 327 330 327 324 325 326 327 328 327 327 326 327 327 327 326 326 325 324 323 323 323 323 323 323 323 323 323 322 322 321 321 320
312 312 314 313 313 314 311 311 311 311 312 310 311 313 314 314 313 313 313 313 313 313 313 313 313 314 313 314 314 314 314 314 314 314 314 314 314 314 313 314 314 313 314 313 314 314 314 314 314 314 314 315 315 316 321 325 328 330 330 330 331 332 336 332 327 330 333 328 325 325 324 324 325 325 326 326 326 326 326 326 325 325 325 325 325 324 324 324 324 324 324 323 323 323 322 321 320
312 312 313 314 314 314 311 310 311 312 312 310 310 312 315 314 312 312 312 312 313 313 313 313 313 313 314 314 313 314 314 314 314 314 314 314 314 314 314 314 314 314 314 313 314 314 314 314 314 314 314 314 315 314 316 320 324 327 330 329 330 331 331 329 327 330 331 327 327 328 326 326 325 325 326 323 322 324 323 324 324 324 324 324 325 324 325 325 325 325 324 324 324 323 322 321 320
311 312 313 314 314 313 312 310 310 312 312 310 311 313 315 314 311 310 311 312 312 313 313 313 314 313 314 314 313 313 313 314 315 314 314 314 314 314 314 314 314 314 314 314 314 314 314 314 314 314 314 314 314 314 314 316 317 320 324 325 324 325 326 330 328 326 327 328 331 331 327 329 328 326 327 323 319 320 321 322 323 321 321 321 323 323 323 324 325 325 324 324 324 323 322 320 320
311 312 314 314 313 313 312 311 310 311 312 311 311 313 314 315 312 309 310 312 311 312 313 313 313 313 313 313 313 313 313 314 315 315 314 314 315 315 315 314 314 314 314 314 314 314 314 314 314 314 314 314 314 314 314 315 316 319 326 327 325 325 330 333 327 326 330 331 333 330 326 330 329 325 328 326 322 323 323 323 324 324 322 321 323 324 323 323 324 325 325 323 322 322 322 321 320
312 313 314 313 312 312 311 312 311 310 312 312 311 312 314 314 313 310 310 311 311 312 313 313 313 313 313 313 313 313 313 314 314 315 315 315 315 315 315 315 315 315 314 314 314 314 314 314 314 314 314 314 314 315 315 315 316 322 328 326 322 324 329 329 326 329 334 333 332 326 323 329 330 326 329 329 326 325 326 325 326 326 325 324 325 325 325 324 324 324 324 322 321 322 323 322 320
312 312 313 312 311 311 311 312 310 310 312 313 312 312 314 314 313 312 311 310 310 311 313 312 312 313 313 313 313 313 314 314 314 314 315 315 315 315 315 315 315 315 315 315 314 314 314 314 314 314 314 314 314 314 315 315 316 319 322 320 319 320 321 323 328 333 334 333 329 324 325 330 331 329 329 331 327 324 326 328 327 327 327 327 326 326 325 325 325 325 325 323 322 322 322 322 320
313 314 314 314 313 311 310 310 309 309 312 313 313 313 314 314 314 314 312 310 310 310 311 312 312 313 313 313 313 314 314 314 314 314 314 315 315 315 315 314 314 314 314 314 314 314 314 314 313 313 313 313 314 314 314 314 314 316 315 315 317 317 316 321 330 335 332 328 326 328 331 328 328 328 327 329 326 322 326 328 328 328 327 327 327 327 326 324 324 325 325 324 323 322 322 321 321
313 314 314 314 314 311 310 310 308 308 312 313 314 314 314 314 314 315 314 311 310 311 311 312 312 313 314 314 314 314 314 314 314 314 314 314 314 314 314 314 314 314 314 314 314 314 314 314 314 313 314 313 313 313 313 313 313 314 314 313 314 315 316 319 325 327 324 324 327 331 333 326 324 327 327 328 324 321 326 327 329 328 323 321 322 324 326 325 324 324 324 323 323 323 322 321 321
312 312 312 313 313 312 310 310 309 307 310 313 312 312 313 313 314 314 314 312 312 312 313 313 313 313 313 314 315 314 314 314 314 314 314 314 314 315 314 314 314 314 314 314 314 315 314 314 314 314 314 313 313 313 313 313 313 313 313 314 314 315 316 317 319 320 319 325 330 332 331 326 325 329 330 330 326 322 323 325 326 323 318 318 321 322 325 325 324 324 323 323 322 322 321 320 320
312 312 312 312 312 312 310 310 309 307 310 313 311 311 313 314 314 315 315 314 313 313 313 314 314 314 314 314 315 315 315 315 315 315 315 315 315 315 315 314 315 315 315 315 315 315 315 315 315 314 314 314 314 314 313 313 313 313 313 314 315 316 317 316 318 319 319 324 327 328 329 324 324 331 330 326 323 320 322 324 324 322 321 323 326 325 325 324 323 323 323 322 321 320 320 319 319
312 313 312 313 314 313 312 311 309 307 308 311 312 313 315 315 315 315 315 313 313 313 313 314 313 313 314 314 315 315 316 316 316 316 316 316 316 315 315 315 315 315 315 315 315 315 315 315 315 315 315 315 314 314 314 314 313 313 313 314 315 317 318 318 319 320 320 320 322 324 325 320 320 325 324 318 317 321 325 327 327 327 326 326 327 327 326 325 323 322 323 322 321 320 320 319 319
313 314 314 314 314 314 313 311 309 308 308 310 313 313 314 316 316 315 315 311 310 311 311 313 314 314 314 315 315 315 316 316 316 316 316 315 315 315 315 315 315 315 315 315 315 315 315 314 315 315 315 315 315 315 314 314 314 313 313 313 315 317 318 319 320 320 320 320 320 321 320 317 317 319 319 315 317 324 328 328 327 327 326 325 324 325 325 325 324 323 321 321 321 320 320 318 318
313 314 314 315 313 313 313 312 311 312 312 311 312 311 312 316 315 315 314 310 311 311 310 312 314 314 315 315 316 315 315 315 315 315 315 315 314 314 314 314 314 314 315 315 315 315 314 314 314 314 315 315 315 315 314 314 314 314 314 314 315 316 316 317 317 318 319 319 319 320 319 318 318 320 320 317 318 323 326 326 326 324 322 319 318 319 321 323 322 320 318 319 319 319 319 318 317
312 313 313 314 314 315 314 314 314 313 312 310 310 311 312 314 316 315 312 311 313 312 312 313 313 313 314 314 315 315 315 315 315 315 314 314 314 314 314 314 314 314 314 314 314 314 313 313 313 314 315 315 315 315 315 314 315 315 315 314 314 315 315 315 316 316 318 319 319 321 320 320 320 320 320 319 319 320 322 322 321 319 318 318 319 321 321 322 320 317 318 321 320 319 319 318 317
314 314 312 313 314 317 317 316 315 313 312 311 311 313 312 312 316 315 311 312 314 313 313 314 313 312 313 313 314 314 314 314 314 314 314 315 315 314 314 314 314 314 314 313 313 313 313 312 313 314 315 315 315 315 315 315 315 315 315 315 315 315 315 316 317 317 319 320 320 320 320 319 319 318 318 318 318 318 318 318 317 316 317 318 319 320 320 320 318 318 320 322 321 320 319 318 318
315 311 310 313 314 316 317 316 313 312 311 312 313 314 312 312 315 314 310 312 314 315 314 315 314 312 312 313 313 313 313 313 313 314 314 314 314 314 314 314 314 314 314 314 313 313 313 312 313 314 315 315 315 315 315 315 315 315 316 316 316 315 315 316 316 317 318 320 320 319 318 317 317 316 316 315 315 316 316 315 315 315 314 314 314 314 314 314 314 315 318 320 319 319 319 318 318
311 308 309 312 312 312 314 314 312 311 311 313 314 312 311 312 316 314 311 312 315 316 315 314 313 311 311 312 312 313 313 313 313 313 313 314 314 314 314 314 314 314 314 313 314 313 313 312 312 314 315 315 315 315 315 315 315 316 316 316 316 316 316 316 316 316 317 318 318 317 316 316 315 315 314 314 314 314 313 313 313 313 313 312 312 312 312 311 311 312 315 316 316 317 318 318 317
309 310 311 312 311 311 312 311 310 311 313 312 309 308 310 311 315 316 314 313 314 315 314 313 312 311 312 313 313 314 314 313 313 313 313 313 313 313 313 313 313 313 314 314 314 314 313 312 312 314 315 315 315 315 315 315 315 316 315 315 316 316 316 316 316 316 316 316 316 315 315 315 314 314 314 313 313 313 313 312 312 312 312 312 312 312 311 311 311 310 311 311 311 312 315 315 315
309 313 313 312 312 312 311 310 310 313 314 309 306 306 309 310 313 315 313 312 311 311 312 313 313 313 313 313 314 315 314 313 313 313 313 313 313 313 313 313 313 313 314 314 314 314 313 313 313 314 315 315 315 315 315 315 315 315 315 315 315 315 315 315 315 315 315 315 315 314 314 314 314 313 313 313 313 313 312 312 312 313 313 313 313 312 312 311 311 310 309 309 310 311 312 313 313
311 312 313 313 313 313 313 313 312 313 312 307 305 307 309 311 313 313 312 312 311 309 310 312 313 312 312 313 314 314 314 314 314 314 314 314 314 314 314 314 314 314 314 314 314 314 313 313 314 314 315 315 315 315 315 315 316 315 315 315 315 315 315 315 315 314 314 314 314 314 314 314 313 313 313 313 313 313 313 313 313 313 313 313 313 313 312 312 311 310 309 309 310 312 314 315 314
311 313 313 313 313 313 314 313 311 312 310 306 305 307 310 312 313 313 313 312 311 309 309 310 310 311 312 312 313 315 315 315 315 315 315 315 315 315 315 315 314 314 314 314 314 314 314 314 314 314 315 315 315 315 315 316 316 315 315 315 315 314 314 314 314 314 314 314 314 313 313 313 313 314 313 313 313 313 313 313 313 314 313 313 313 313 313 312 311 311 310 309 309 310 312 313 314
312 315 314 313 313 314 314 313 313 313 311 307 305 308 312 313 312 313 312 309 309 309 309 309 310 311 312 313 313 315 315 315 315 315 315 315 315 315 315 315 315 315 315 315 315 314 314 314 315 315 315 315 315 315 315 315 315 315 315 315 315 314 314 314 314 314 314 314 314 314 314 314 314 314 314 314 313 313 314 314 314 314 313 313 313 313 313 313 312 311 310 309 308 309 310 311 312
311 311 312 313 314 314 311 309 310 310 310 309 308 310 313 313 312 312 311 309 308 308 308 309 310 311 312 312 313 314 315 314 313 314 315 315 315 315 315 315 315 315 315 315 315 315 315 315 315 316 315 315 315 315 315 315 315 315 315 315 315 315 315 315 315 315 314 314 314 314 314 314 314 314 314 314 314 314 314 314 314 314 314 313 313 313 313 313 313 311 310 309 308 308 309 309 310
310 309 310 311 313 315 311 306 305 306 310 312 310 311 313 311 312 314 313 312 310 309 307 307 309 311 311 312 314 315 315 314 314 314 314 315 315 315 315 315 315 315 315 315 315 315 315 315 315 315 315 315 315 315 315 315 315 315 315 315 315 315 315 315 315 315 314 314 314 314 314 314 314 314 314 314 314 314 314 314 314 314 314 313 313 313 313 312 312 311 310 309 308 308 308 309 310
311 311 311 310 310 313 311 309 309 308 310 312 309 311 312 310 312 315 314 312 312 311 309 308 309 310 311 312 314 314 315 314 314 314 313 314 315 315 315 315 315 315 315 314 315 315 315 315 315 315 315 315 315 315 315 315 316 315 315 316 315 315 315 315 315 315 315 315 315 315 315 315 315 314 314 314 314 314 314 314 314 314 314 313 313 313 312 312 312 311 310 309 309 308 308 309 310
309 311 311 311 312 312 310 310 312 311 311 312 309 308 309 310 312 315 314 313 314 313 311 311 311 310 311 313 314 314 315 314 314 314 314 314 314 314 315 315 315 315 315 315 315 315 315 315 316 316 316 316 316 316 316 316 316 316 316 316 315 316 315 315 315 315 315 315 315 315 315 314 315 314 314 314 314 314 314 314 314 314 313 313 313 313 312 312 311 310 310 309 308 308 308 308 309
307 307 308 311 313 312 311 311 311 312 311 311 310 308 309 311 312 313 313 313 315 314 313 314 311 311 312 313 314 315 315 315 314 314 314 314 314 314 314 315 315 315 315 315 315 315 316 316 316 316 316 316 316 316 316 316 316 316 316 316 315 315 315 315 315 315 315 315 314 314 314 314 314 314 314 314 314 314 314 314 313 313 313 313 312 312 312 312 311 310 309 309 308 308 308 308 308
308 308 309 310 310 309 310 309 308 311 311 310 311 309 310 313 312 312 312 313 314 313 314 314 310 310 313 312 313 315 315 314 314 314 315 315 314 314 314 314 315 315 315 315 316 316 316 316 316 316 316 316 316 316 316 315 316 315 315 315 315 315 315 315 315 315 315 315 314 314 314 314 314 314 314 314 314 313 313 313 313 313 313 312 312 312 311 311 311 311 310 309 308 307 308 308 309
311 310 310 312 311 310 312 311 308 308 309 309 310 310 312 314 312 312 312 312 311 309 309 311 309 309 312 312 313 315 314 313 314 314 315 315 315 315 314 314 314 315 315 315 315 316 316 316 316 316 316 316 316 316 316 315 316 316 315 315 315 315 315 315 315 315 314 314 314 314 314 314 314 314 314 313 313 314 313 313 313 313 312 312 312 311 311 311 311 310 310 309 308 307 308 309 309
Wind_Speed
6 7 6 6 4 4 3 2 1 2 1 2 2 1 4 1 2 5 7 6 5 7 4 6 14 12 5 0 1 3 4 1 2 2 2 11 21 23 19 18 18 17 15 13 12 10 8 8 8 9 9 10 11 12 13 14 14 14 13 13 13 14 15 15 15 13 9 10 12 14 15 13 12 14 14 15 15 16 17 16 15 14 14 15 15 14 13 14 15 16 17 18 19 18 17 15 13
7 8 7 6 5 4 2 2 2 2 2 3 3 0 4 3 3 7 10 6 4 8 7 9 15 10 2 1 3 1 2 2 3 3 8 21 26 23 20 19 19 17 15 13 12 10 7 7 8 8 9 10 11 11 12 13 14 15 14 13 13 13 13 14 15 14 11 9 10 12 14 12 12 14 14 15 15 15 16 16 15 15 15 15 15 14 14 14 14 15 16 17 18 18 17 16 15
9 9 8 6 5 3 2 2 2 3 3 3 4 2 4 6 6 7 8 5 7 12 11 12 13 7 1 3 4 1 2 2 3 8 15 26 25 23 22 20 20 17 14 13 12 10 8 7 7 8 8 10 11 11 12 12 13 14 14 13 13 13 13 14 15 13 10 8 9 11 12 12 12 14 14 14 15 16 17 16 16 15 14 15 14 11 12 13 14 15 16 16 17 17 16 16 16
10 9 9 7 4 3 2 2 1 3 3 2 3 5 6 6 8 7 8 7 13 14 10 14 10 6 4 1 1 1 3 4 6 11 19 24 22 24 23 22 21 17 14 13 12 11 9 8 7 8 8 9 10 11 12 12 13 14 14 14 13 13 14 14 16 13 10 8 8 10 9 10 12 13 13 12 15 16 16 15 14 13 12 13 12 11 13 14 15 15 16 17 17 17 17 16 16
11 9 9 7 4 2 1 1 0 3 1 2 2 6 8 5 8 9 9 10 15 12 8 13 6 5 6 2 1 0 3 6 8 12 18 21 22 25 24 23 21 18 15 14 12 11 9 8 8 8 8 8 10 11 11 12 12 13 13 14 13 13 13 14 16 15 12 9 8 9 7 8 10 11 12 12 13 13 14 13 12 11 11 13 13 14 15 15 14 15 16 16 16 16 16 15 14
10 9 8 6 3 2 2 2 2 3 2 1 1 5 8 6 9 12 12 10 11 9 9 10 3 5 4 3 4 1 6 8 8 12 15 20 25 25 23 23 21 19 16 14 13 11 10 9 8 8 8 8 9 10 11 12 12 13 13 13 13 13 13 14 17 15 12 10 8 8 7 6 8 10 12 12 12 12 14 13 12 12 12 14 14 14 14 13 14 14 15 15 15 15 15 14 13
11 8 6 5 2 0 3 2 2 2 2 2 3 4 8 8 11 15 13 9 6 5 10 10 4 6 3 3 4 4 10 9 11 16 17 22 27 25 23 23 21 20 16 14 14 12 11 9 9 8 8 8 8 10 11 11 11 12 13 13 13 13 13 14 16 15 12 10 8 7 6 6 7 10 12 12 12 13 14 13 13 14 13 13 13 13 13 13 13 14 15 14 14 15 15 14 12
11 6 4 4 1 1 2 1 1 1 1 1 2 1 6 11 13 15 12 7 5 6 10 10 8 6 2 4 2 5 12 12 16 21 23 25 27 25 24 23 22 20 17 15 15 12 11 10 9 8 8 8 7 8 10 11 11 11 12 12 12 13 13 12 13 14 13 10 9 7 6 5 7 9 12 12 11 12 14 13 13 12 12 13 13 13 13 13 13 14 14 14 14 14 14 13 12
10 5 3 3 1 1 1 1 1 0 1 1 1 1 4 10 11 13 11 5 5 7 8 9 10 5 3 6 2 7 12 13 19 24 26 26 26 25 23 23 22 21 18 17 15 13 11 10 10 9 8 8 7 8 9 10 10 10 11 12 12 12 12 12 10 12 12 10 9 8 5 4 6 7 9 10 10 11 12 13 12 12 11 12 12 13 12 13 13 13 13 13 13 13 12 12 12
7 4 3 2 1 2 2 2 1 1 2 1 1 2 6 11 9 9 11 6 6 6 7 9 8 4 4 6 3 7 11 14 22 25 26 26 26 25 23 22 21 21 19 17 16 13 11 11 10 9 9 8 7 7 8 8 9 9 10 11 11 12 11 12 11 9 9 9 9 7 5 4 5 6 8 9 9 9 10 12 11 11 11 11 11 11 11 12 12 12 13 12 12 12 12 12 11
4 3 3 2 3 3 3 2 2 2 2 1 1 4 8 12 8 7 7 6 7 5 8 10 6 5 5 4 3 6 12 18 25 27 27 26 26 24 23 22 20 20 18 17 16 14 12 11 10 9 8 8 8 7 7 7 8 8 8 9 10 10 10 11 11 9 8 7 7 6 4 4 5 6 6 7 7 7 8 11 11 11 12 12 11 11 11 11 11 11 12 12 11 11 11 11 10
3 2 3 3 3 1 1 1 3 3 2 3 4 6 11 12 8 9 7 6 8 5 9 10 5 8 6 3 4 7 15 22 25 27 27 26 25 24 23 21 20 19 17 17 16 14 13 12 10 8 8 8 8 7 6 6 6 7 6 7 8 9 9 9 9 9 9 7 5 4 4 5 6 6 5 5 6 5 6 9 10 11 11 11 11 10 10 10 10 10 11 11 11 11 11 10 10
3 2 3 2 0 1 2 1 2 2 2 4 4 8 14 12 8 10 8 7 9 7 9 10 5 7 4 3 6 10 17 23 26 26 26 26 25 24 22 21 20 19 17 16 15 14 13 12 10 9 8 7 7 7 6 5 5 5 5 5 5 6 7 8 8 8 9 7 6 5 6 7 6 6 5 4 5 5 5 7 10 11 11 11 10 10 10 9 9 9 10 10 10 10 10 9 9
4 3 2 2 0 0 2 1 3 3 4 5 5 12 15 10 6 8 8 8 9 7 9 11 8 6 3 4 7 12 19 24 26 25 26 25 25 23 22 21 20 19 18 16 15 14 13 13 12 10 9 8 7 6 6 5 4 4 4 3 3 4 5 5 6 7 7 7 6 6 7 7 6 5 5 5 5 5 5 7 10 10 10 10 10 10 9 9 9 9 9 8 8 8 8 8 7
6 3 1 3 2 1 2 0 2 3 4 6 9 15 15 9 7 8 8 7 8 9 9 10 10 5 3 5 7 14 22 25 26 25 26 25 24 23 21 21 20 20 18 17 16 14 14 14 13 12 11 10 9 7 6 6 5 5 3 3 3 3 3 4 4 5 6 6 6 6 7 7 7 6 6 6 6 6 5 6 8 8 9 9 9 9 9 8 8 8 7 6 6 7 7 6 5
7 4 1 2 3 2 3 1 2 3 3 7 12 17 12 8 9 9 8 6 5 10 9 9 12 5 2 5 7 18 23 25 26 24 26 24 25 24 22 22 20 20 20 18 17 16 16 15 14 13 12 12 10 9 8 7 6 6 5 4 3 2 2 3 3 3 4 5 5 5 6 7 7 6 6 7 7 7 6 6 6 7 8 8 8 8 8 8 7 7 6 5 5 5 5 5 4
7 3 1 2 2 2 4 5 4 2 4 7 13 17 12 8 9 9 9 7 5 10 11 9 13 8 4 7 8 19 24 24 26 25 27 26 25 25 23 23 21 22 21 20 19 17 17 16 16 14 13 13 11 11 10 9 8 7 6 6 5 3 2 2 3 3 3 3 4 4 5 6 6 6 6 7 7 6 6 6 6 6 6 7 7 7 7 7 6 6 5 4 4 4 4 3 2
5 2 2 3 2 2 4 7 5 2 6 10 13 17 14 10 10 8 7 8 5 9 12 11 12 9 7 8 9 19 24 25 27 26 28 27 26 26 25 25 24 24 23 22 20 18 18 18 17 16 14 14 13 12 11 11 10 9 8 7 7 5 4 3 2 2 2 2 3 2 3 4 5 5 5 6 6 5 5 5 5 5 5 5 4 5 5 5 5 4 4 3 3 3 3 2 2
3 1 3 3 2 2 2 6 6 1 6 13 14 16 13 10 12 11 8 7 7 7 10 10 11 11 10 10 10 17 24 25 27 26 27 28 28 27 27 26 25 25 24 23 22 20 20 19 18 17 16 15 14 13 12 12 11 10 10 9 9 8 6 4 3 3 2 2 1 1 2 2 3 4 5 5 5 4 4 4 4 4 4 3 2 2 3 3 3 3 2 1 1 2 3 3 4
1 2 4 3 3 2 2 6 7 2 7 14 13 15 10 9 14 12 8 6 7 9 10 10 11 14 13 12 12 16 23 25 27 27 26 27 27 27 27 27 26 26 25 24 23 22 21 20 20 18 17 16 15 14 14 14 13 12 12 10 10 10 9 7 6 5 3 3 2 2 2 2 2 3 4 4 4 3 4 3 3 3 3 3 2 0 1 1 1 1 1 1 1 2 3 4 5
2 3 2 3 4 2 3 8 8 5 8 12 14 14 9 10 15 12 8 6 7 11 13 13 13 16 17 14 12 15 22 24 26 27 26 26 26 25 25 25 25 24 24 24 24 23 22 21 20 20 18 17 17 16 15 15 14 14 13 12 12 11 11 10 9 7 6 5 4 3 3 3 3 3 3 3 3 3 3 3 3 3 3 3 3 3 2 2 2 2 2 3 3 3 3 5 6
2 1 3 2 4 2 4 9 9 6 7 12 15 12 11 12 13 12 12 8 6 8 14 17 15 16 17 16 14 14 21 25 26 26 25 26 26 25 24 23 22 22 22 23 24 24 23 22 22 21 20 19 18 17 16 15 15 15 14 14 13 13 12 12 11 10 8 7 6 5 4 4 4 4 4 4 4 3 4 3 3 3 3 4 4 4 3 3 4 4 4 4 4 4 5 5 6
2 1 2 2 2 2 6 8 9 9 8 12 13 12 13 13 9 12 16 11 5 5 9 14 16 16 16 17 16 14 18 23 24 24 24 24 25 25 24 23 23 22 22 23 24 24 24 24 23 23 22 21 19 18 17 16 16 16 16 16 15 15 14 13 13 12 11 9 8 7 6 6 5 6 6 6 5 5 5 5 5 4 4 5 5 5 4 4 5 5 5 5 5 6 6 6 7
3 2 3 3 3 2 6 7 9 11 9 11 14 12 13 12 8 11 17 17 13 7 4 7 12 16 16 17 18 15 15 19 21 22 23 23 23 23 23 23 22 21 23 24 24 24 24 24 24 24 23 22 21 20 18 17 16 15 17 18 17 16 16 15 14 13 13 12 11 9 8 8 7 7 7 7 7 7 7 6 6 6 6 6 6 6 6 5 6 6 6 6 6 6 7 7 8
3 2 5 4 3 3 6 7 9 11 9 12 14 10 9 11 6 7 15 18 19 16 8 5 7 14 17 17 18 17 16 18 21 22 23 24 24 22 23 23 21 20 22 23 23 23 23 24 25 25 24 24 23 21 19 18 17 16 18 19 18 18 17 17 16 15 15 13 13 12 11 10 9 9 9 9 9 9 8 7 8 7 7 7 7 7 7 7 7 7 7 7 7 7 7 8 9
3 4 6 5 4 6 7 7 9 9 9 12 12 5 5 10 5 7 14 15 16 19 16 10 6 10 16 17 17 18 17 17 20 21 22 24 25 25 25 24 22 22 22 21 22 21 21 22 24 24 24 24 24 22 20 19 17 18 19 19 19 18 18 17 16 16 16 16 15 14 13 12 12 11 11 11 11 11 10 9 9 9 9 9 9 8 8 8 8 8 8 8 8 8 8 9 9
9 10 8 7 6 6 6 7 8 7 10 11 8 5 3 6 4 6 11 14 16 18 19 18 12 9 13 17 18 18 18 18 18 21 22 24 25 25 25 24 23 22 22 21 21 20 20 21 21 22 23 24 24 23 22 21 20 18 19 19 18 15 14 14 15 15 16 16 17 16 15 14 13 13 13 13 13 13 12 12 11 10 10 10 10 10 9 10 10 10 10 9 10 10 9 10 11
15 15 10 8 6 7 5 7 9 6 7 8 6 5 3 4 4 6 6 10 15 19 20 21 20 16 13 16 19 20 19 19 20 21 22 23 24 23 22 22 22 21 21 22 21 21 20 20 20 21 22 22 23 23 22 23 22 19 19 19 17 13 13 13 12 13 14 15 16 16 16 15 15 14 14 14 14 14 14 13 13 12 11 11 11 11 11 11 11 11 11 11 11 12 12 12 12
15 10 6 5 4 5 4 3 6 3 4 9 8 4 3 6 8 8 9 8 9 16 20 20 21 21 18 17 18 21 21 21 21 21 21 22 21 20 20 20 20 20 20 21 21 21 21 20 21 21 20 21 22 22 21 21 21 20 20 20 19 16 16 18 15 13 14 14 14 14 14 14 15 16 16 16 15 15 16 15 14 13 13 13 12 12 13 13 13 12 11 12 13 13 14 14 14
10 3 1 4 4 3 3 2 3 2 4 10 8 2 5 10 10 9 11 11 9 12 16 19 20 20 22 21 19 20 22 23 22 21 21 21 20 19 20 20 19 20 20 21 21 21 21 21 21 21 21 21 22 22 21 21 20 19 19 20 23 22 21 22 18 17 19 16 14 13 11 10 10 12 14 15 17 16 17 16 15 14 13 14 14 15 15 14 15 14 13 13 14 15 16 17 16
6 3 2 2 4 4 4 2 1 3 5 9 6 4 3 5 7 11 13 12 10 10 12 15 18 19 21 22 22 22 21 23 22 21 21 21 21 21 21 20 20 20 20 20 20 20 21 21 20 20 21 21 22 22 22 21 20 20 20 21 24 25 24 22 19 19 21 17 17 15 12 11 10 11 12 13 14 15 16 16 14 14 14 14 15 16 17 17 17 16 16 16 16 17 18 18 18
2 4 4 2 3 3 3 1 0 1 4 7 6 4 4 2 4 10 14 13 12 11 11 14 15 17 20 22 23 23 22 22 23 23 23 22 22 21 21 20 20 20 20 19 20 20 21 21 20 20 20 20 20 21 21 21 22 22 22 21 22 22 22 22 20 19 19 17 19 19 17 17 14 14 14 12 10 11 11 12 12 12 12 13 14 16 17 19 19 19 19 18 18 19 19 20 21
1 3 4 4 4 3 2 2 1 1 2 6 5 3 3 1 3 6 9 10 11 11 13 16 17 17 19 22 24 24 24 23 24 24 24 23 23 22 21 21 21 20 20 20 20 20 20 20 20 20 20 20 20 21 20 21 21 20 20 20 21 22 22 24 22 19 21 22 21 21 20 21 18 16 16 13 11 11 10 11 12 13 14 15 16 17 19 20 21 22 22 21 20 20 20 22 23
3 1 1 1 3 3 3 3 1 0 2 5 5 4 6 1 2 6 8 6 5 8 10 14 18 19 19 21 23 25 25 25 25 24 24 24 23 22 22 21 21 21 22 22 21 21 21 21 21 20 20 21 21 22 21 22 21 20 21 22 23 25 26 27 24 22 25 25 22 20 20 23 22 19 20 19 16 16 16 15 14 16 19 20 20 20 21 23 24 25 25 24 22 21 22 24 25
8 6 3 2 3 4 3 2 2 1 3 5 5 7 12 7 4 7 8 6 6 8 10 11 16 19 20 20 23 25 27 28 27 25 23 23 23 23 23 22 22 23 23 23 23 23 23 23 22 21 21 22 23 23 23 23 24 24 24 24 25 26 27 27 25 24 25 25 23 22 21 23 24 23 23 23 21 20 22 22 19 18 21 24 25 23 22 24 26 28 29 27 24 24 24 25 26
10 8 5 5 5 3 1 1 2 1 4 7 9 10 11 10 10 10 10 11 10 11 13 15 15 17 19 21 23 24 26 28 27 25 25 24 24 24 24 24 24 24 25 25 25 26 26 26 25 24 23 23 23 24 25 25 25 26 26 25 25 25 25 25 25 25 27 27 25 25 25 22 22 23 23 23 24 24 25 27 25 22 21 25 28 27 25 25 25 28 30 29 27 27 28 27 27
6 4 1 2 4 3 2 2 3 2 4 7 7 9 11 12 11 10 10 10 11 12 14 18 19 19 19 21 24 26 26 26 24 24 26 26 27 27 27 27 27 26 27 27 27 27 27 27 26 26 25 24 25 25 25 25 25 26 25 24 24 24 24 26 28 29 29 27 23 25 28 24 23 26 25 23 25 25 25 27 27 26 23 24 26 28 30 30 26 26 29 30 30 30 31 31 29
3 4 3 2 3 1 2 1 2 2 3 3 1 6 13 14 12 11 10 10 13 15 15 17 21 22 21 20 23 25 25 24 23 24 24 25 26 27 28 28 28 28 28 28 28 27 27 27 27 26 26 26 26 26 26 25 25 25 24 24 23 23 24 25 27 28 27 26 23 24 28 26 24 26 26 24 25 26 25 23 23 25 23 23 25 27 30 33 30 27 28 30 32 33 33 34 33
3 3 4 3 2 2 2 1 2 1 3 1 2 5 11 12 12 13 13 13 15 18 20 21 20 21 23 23 22 23 23 23 24 23 22 22 24 26 27 28 29 28 29 29 28 28 28 28 28 27 27 27 27 27 27 26 25 24 24 24 22 22 24 23 24 27 27 26 27 28 29 28 26 26 26 26 27 25 24 24 25 25 24 25 28 29 28 28 30 31 31 32 34 35 35 35 36
2 3 4 4 3 2 2 3 2 1 1 1 1 4 9 9 9 11 14 14 15 20 24 25 24 24 24 24 24 23 24 25 25 23 21 22 23 25 27 28 28 29 31 31 29 29 29 29 29 28 27 27 26 27 26 25 24 24 25 24 23 23 23 22 22 25 26 27 29 30 31 31 29 28 27 27 26 25 25 28 29 28 26 27 29 29 28 27 28 31 33 35 37 37 36 35 36
2 3 5 3 5 4 1 4 4 1 1 1 1 5 7 6 8 10 7 7 12 17 19 23 26 28 26 25 25 25 26 27 27 25 24 25 26 28 28 28 29 31 33 32 30 29 29 29 28 27 27 27 26 26 25 25 25 25 25 25 24 25 25 24 24 26 27 27 28 28 28 27 26 25 25 25 24 25 26 28 29 30 31 32 31 30 30 29 29 32 34 34 36 36 35 35 35
3 5 5 2 6 6 4 6 6 2 4 1 1 5 5 1 5 8 2 1 7 9 11 17 23 25 26 27 28 27 27 28 28 27 27 28 29 30 31 32 33 35 35 34 34 33 32 30 29 28 28 27 27 25 25 25 25 25 25 26 26 26 26 26 26 26 27 26 24 23 23 22 21 23 25 25 24 24 27 30 32 34 35 35 34 32 32 32 33 35 35 33 33 34 34 35 36
4 3 4 3 5 7 7 8 5 2 2 1 1 5 4 1 3 3 1 3 7 6 8 14 19 22 24 26 28 27 28 28 28 28 27 26 27 29 32 34 36 38 38 37 37 37 35 32 31 30 28 27 26 25 25 24 24 24 25 26 26 26 26 25 23 23 23 23 21 20 21 20 20 23 24 24 24 26 29 31 34 35 34 34 33 33 33 35 37 36 35 36 35 35 36 36 35
2 1 3 7 8 8 9 8 4 1 1 1 1 2 4 5 3 2 2 4 7 6 9 12 16 20 21 22 24 24 25 26 26 26 24 22 24 25 27 29 32 35 36 38 38 37 35 34 33 31 29 27 26 25 25 24 23 23 23 24 25 25 25 24 22 22 21 21 21 21 22 22 22 23 24 24 25 26 28 30 31 32 33 34 34 35 37 37 38 36 35 36 35 35 38 38 34
0 1 2 5 6 5 6 6 3 1 1 4 3 1 4 6 2 2 1 4 8 8 10 10 11 15 18 18 18 19 21 22 23 22 20 20 22 22 21 21 22 23 26 30 33 34 35 34 33 32 30 28 27 26 25 24 23 22 22 23 24 25 24 23 23 23 22 22 23 23 23 22 22 22 23 23 24 25 27 28 29 30 31 32 33 34 36 36 37 37 36 36 35 36 38 37 36
4 5 5 6 5 5 3 3 3 2 3 5 3 1 4 5 2 3 1 3 7 8 7 5 4 9 13 13 13 15 16 17 18 19 20 22 23 22 21 20 18 17 18 21 24 28 31 33 33 32 30 28 27 26 25 24 23 22 22 23 24 24 23 24 24 24 24 24 24 23 23 22 21 21 21 22 23 24 26 26 27 28 28 29 30 31 32 33 35 37 38 39 39 38 36 36 36
10 8 7 8 5 3 2 1 1 3 5 3 2 2 3 4 2 4 4 2 3 5 4 1 2 6 8 8 9 11 12 14 15 16 19 22 24 23 22 21 19 18 18 19 21 23 27 30 31 29 28 27 27 26 25 24 23 23 23 23 23 23 23 24 24 24 24 23 23 22 21 20 20 21 21 21 22 22 23 23 23 23 24 25 27 29 31 32 33 35 36 38 39 38 38 37 36
6 4 6 7 3 2 2 1 2 5 5 1 2 2 3 5 3 2 2 3 2 4 3 1 4 5 5 4 5 7 8 10 12 14 16 18 20 19 19 18 18 17 18 18 19 21 23 26 27 27 26 26 25 25 25 24 23 23 22 22 22 22 23 23 24 24 23 22 21 21 20 20 20 20 20 20 19 19 19 20 20 20 22 24 27 29 30 31 32 33 34 35 35 36 36 36 36
2 4 8 6 4 4 4 3 3 5 2 2 1 1 3 7 6 4 7 7 4 6 7 4 3 3 4 3 3 5 7 8 10 12 13 14 14 15 15 15 15 16 16 17 18 19 21 23 24 24 24 23 23 24 23 23 23 22 21 20 21 21 22 22 22 22 21 20 20 20 20 20 19 19 18 17 17 17 18 19 19 20 22 25 27 28 30 30 31 32 33 33 34 35 35 35 36
5 7 8 7 5 5 5 4 1 3 0 2 1 1 3 6 5 7 11 6 2 5 10 10 8 7 6 4 3 5 7 9 10 11 11 12 12 13 14 15 15 16 16 16 17 18 20 20 21 21 21 21 21 21 21 21 21 20 19 19 19 19 20 21 21 20 19 19 19 19 19 19 18 17 17 16 16 17 18 19 20 21 23 25 26 28 29 29 29 30 32 33 34 36 36 36 37
3 1 2 5 5 4 5 3 2 2 2 2 1 2 4 3 1 3 7 6 6 10 12 11 11 9 7 5 4 6 8 10 11 10 10 10 11 12 13 14 15 15 15 16 16 17 18 18 18 18 18 18 18 18 18 19 18 18 17 17 17 18 19 19 19 19 19 18 19 19 18 18 17 17 17 17 18 19 20 21 22 23 24 24 26 27 28 28 27 28 30 32 34 35 37 38 38
1 1 0 3 3 2 2 0 0 1 1 2 3 3 4 2 5 6 5 5 9 13 13 14 15 14 11 9 6 7 10 10 11 11 11 10 10 11 12 13 13 14 14 15 15 15 15 15 15 15 16 16 16 16 16 16 16 16 15 16 16 17 17 18 18 19 18 18 18 18 18 18 18 18 18 18 19 21 22 23 24 25 25 25 26 27 27 28 27 27 28 30 32 33 35 35 35
2 2 3 2 1 3 3 1 1 1 3 3 3 4 4 2 7 6 1 2 5 6 8 12 16 16 13 11 8 10 11 11 11 11 11 11 11 11 12 12 13 13 13 14 14 14 14 15 15 15 15 14 14 14 14 13 13 13 13 14 15 16 17 18 19 18 18 18 19 19 20 19 19 19 20 20 21 23 23 24 25 26 26 26 27 27 27 27 26 27 28 29 30 30 30 31 30
2 4 4 3 1 1 1 1 1 1 4 2 2 5 4 1 3 2 0 5 6 4 3 7 11 13 13 12 10 12 13 12 11 10 11 12 12 12 12 12 12 12 13 13 14 15 15 15 15 15 14 13 12 12 11 11 11 11 12 13 14 15 16 18 19 19 20 20 21 22 21 21 21 21 22 22 23 24 24 25 26 26 27 28 28 28 27 26 25 26 28 29 30 29 30 31 31
1 2 2 2 2 2 2 2 2 3 4 2 2 3 4 4 4 2 1 6 6 4 3 4 7 11 15 16 13 13 14 12 10 10 10 12 12 12 12 12 11 11 12 12 14 14 14 15 14 13 12 11 11 10 9 10 10 11 12 13 14 16 17 19 20 20 21 22 23 23 23 23 23 23 23 23 23 24 25 26 27 28 29 29 30 29 29 27 25 25 27 29 30 30 31 32 33
1 1 1 0 1 2 2 2 1 3 3 2 1 1 3 6 5 3 6 7 4 3 3 4 8 12 18 19 16 15 14 11 10 11 11 12 12 12 12 12 11 11 11 12 14 14 14 13 12 11 10 10 9 9 10 10 11 12 14 15 16 17 18 19 20 21 23 24 24 24 24 24 23 23 23 23 23 25 26 28 29 30 31 31 31 30 29 28 25 25 26 28 29 30 31 32 32
3 4 4 3 1 0 1 1 2 1 3 2 3 3 3 2 3 7 10 6 1 2 2 4 9 14 17 17 17 16 14 11 12 12 12 12 12 11 11 11 11 11 11 12 13 13 12 12 10 10 10 10 10 11 12 13 14 15 16 17 18 18 19 20 22 23 25 25 25 25 24 24 24 24 24 24 24 25 27 29 30 32 32 32 32 30 29 28 27 25 25 26 28 28 30 31 32
1 3 5 5 4 3 3 4 1 0 1 1 2 4 3 1 2 5 6 2 1 2 3 3 7 13 15 15 17 17 15 15 15 13 13 13 12 11 11 10 10 10 10 10 11 11 10 10 10 11 11 12 12 13 14 15 17 18 18 19 19 20 21 22 23 25 26 26 26 25 24 25 25 25 24 24 24 26 27 29 31 32 33 33 32 30 28 27 27 26 26 26 27 29 31 33 33
Wind_Direction
176 178 172 165 158 169 160 206 190 84 269 121 115 161 143 93 67 150 147 148 141 154 164 137 152 155 155 168 131 51 28 87 28 339 101 135 151 154 160 158 157 160 150 140 145 139 124 118 106 94 80 75 75 71 64 62 65 70 76 85 92 93 95 104 109 105 95 71 66 64 70 83 82 83 89 90 92 95 97 95 97 93 87 81 75 81 87 87 84 82 85 86 89 91 93 97 101
179 175 167 165 163 185 176 233 252 141 181 137 147 162 117 140 182 167 155 150 112 146 158 142 156 165 175 173 166 129 108 81 42 71 124 145 151 155 160 158 158 161 149 140 142 138 134 126 112 100 85 77 76 75 68 65 67 69 72 79 89 94 97 105 106 99 96 83 69 67 71 81 84 86 88 91 92 94 99 100 96 90 90 89 84 86 85 85 85 83 85 88 91 92 92 93 93
177 169 164 165 169 201 170 209 249 178 190 143 147 124 132 172 176 150 135 106 109 146 150 144 161 168 179 161 177 263 108 108 120 121 137 148 153 157 158 158 160 160 148 140 142 139 141 136 120 105 90 79 76 77 71 69 71 73 74 76 86 96 101 105 104 96 96 92 70 65 70 83 88 88 89 92 96 96 96 97 93 91 95 96 94 93 87 87 89 87 86 87 88 89 89 89 88
173 163 160 160 171 186 175 215 256 205 197 141 138 148 179 185 152 120 100 106 131 143 144 153 165 184 213 177 149 290 112 139 146 139 146 151 157 159 157 160 161 160 151 142 144 143 146 142 126 111 98 84 76 76 73 71 72 74 74 75 83 93 100 108 112 109 105 98 77 69 65 80 87 89 91 95 100 101 100 97 96 98 102 102 97 91 89 88 86 85 87 88 87 88 89 88 87
168 161 164 172 188 169 157 199 215 227 194 143 128 153 190 179 136 117 111 126 136 139 152 166 171 190 208 297 196 4 121 154 157 149 150 156 161 160 158 161 160 161 155 147 148 145 148 144 131 119 105 93 80 76 75 73 72 72 73 74 77 85 96 110 117 113 109 104 91 87 78 73 78 80 84 95 103 103 103 103 106 104 102 101 93 89 91 90 88 89 92 92 91 92 91 91 90
162 162 170 179 174 136 185 185 184 204 49 16 67 145 181 163 137 126 125 129 135 144 161 175 184 170 186 231 208 163 144 158 163 158 155 161 162 161 161 161 161 162 158 152 149 147 150 145 136 125 111 104 89 81 78 76 74 72 72 74 73 76 87 109 118 111 111 112 100 98 94 70 60 66 75 92 101 98 98 101 106 102 97 96 94 94 95 96 97 96 95 95 95 94 94 94 94
152 154 163 163 120 91 224 191 179 171 68 343 25 134 163 150 141 133 138 145 145 161 169 182 185 163 164 184 196 192 170 158 163 164 162 165 162 162 163 163 163 163 162 158 150 151 155 148 141 131 121 114 100 89 83 82 78 74 73 75 76 75 79 102 119 113 112 114 104 101 94 68 55 62 69 80 90 94 99 103 100 97 95 92 93 94 94 98 101 100 100 100 98 98 98 99 98
151 154 163 165 85 351 229 158 149 98 88 304 344 138 147 150 152 145 152 159 159 170 174 186 188 187 159 145 157 187 179 166 169 168 165 165 163 164 164 164 165 165 166 163 155 156 160 153 146 138 132 123 112 98 88 86 80 76 73 73 74 75 76 90 117 119 115 118 110 100 89 68 57 60 63 69 78 91 101 104 99 96 96 95 94 94 94 96 100 102 103 103 102 102 102 103 100
161 166 167 170 168 137 162 161 147 53 128 173 212 199 150 159 161 155 155 147 153 159 171 183 188 200 133 146 141 173 184 175 169 166 165 166 165 166 166 166 166 167 168 167 160 159 164 158 151 144 140 131 122 107 92 88 81 77 73 71 70 71 72 77 102 118 119 121 117 109 97 70 55 52 56 64 72 87 101 106 104 101 100 100 100 98 97 96 98 102 105 107 105 103 101 102 103
175 176 155 147 192 181 177 175 146 148 145 132 171 163 163 166 167 161 153 141 152 154 170 178 185 200 144 151 144 179 191 176 167 166 168 169 168 167 167 169 168 170 171 170 165 163 168 161 156 149 144 137 127 114 98 88 82 78 71 70 67 67 68 68 78 97 115 121 121 117 104 71 54 44 46 58 67 81 99 110 111 106 106 105 105 101 99 100 101 102 106 111 108 103 101 102 105
184 175 167 169 188 198 185 162 152 140 116 191 166 151 166 166 163 154 143 134 151 150 166 176 186 185 166 147 150 192 186 171 167 167 171 171 169 169 170 170 169 173 174 173 170 169 170 164 162 155 148 142 134 123 110 95 85 80 73 70 66 67 63 63 66 73 94 109 118 115 98 70 56 47 43 54 65 74 92 110 114 109 107 103 102 97 93 97 99 101 104 109 108 106 103 104 105
192 153 190 199 190 192 154 140 146 133 126 183 153 154 168 165 164 163 159 148 159 161 170 181 187 174 166 141 168 183 173 168 168 169 173 172 170 172 172 172 170 174 179 177 175 175 173 167 167 165 158 146 139 131 124 111 94 85 76 73 68 68 62 61 64 65 73 84 98 90 77 70 60 52 48 56 72 82 88 105 112 106 104 99 94 88 86 87 91 99 102 104 106 107 107 105 105
207 166 204 190 168 52 138 132 133 141 169 171 146 159 166 166 177 175 165 152 163 169 180 189 180 175 160 125 168 171 170 170 169 171 174 172 173 175 174 175 173 175 182 184 182 182 180 170 169 178 169 152 149 142 139 135 112 99 84 81 75 73 68 63 64 67 70 70 71 65 65 68 66 61 61 67 80 95 90 97 107 105 104 98 91 86 85 84 86 95 99 103 104 107 110 107 107
205 190 215 140 133 143 147 114 150 191 169 140 134 156 164 173 191 176 166 161 172 180 184 188 176 177 172 148 164 170 175 174 171 172 174 174 174 176 178 178 179 179 182 188 188 189 189 178 175 182 175 165 166 158 156 159 143 127 104 96 91 87 82 73 71 70 70 68 64 65 68 69 71 71 70 77 86 98 96 96 103 104 105 98 92 88 85 86 87 90 95 100 104 107 111 109 110
199 173 101 125 148 157 185 323 161 211 162 138 150 159 164 181 187 178 190 183 181 190 182 184 183 179 181 171 167 176 180 175 172 174 175 176 176 179 182 183 184 185 186 189 192 193 196 191 184 184 179 177 179 175 175 180 175 163 148 130 120 113 105 91 88 78 73 69 63 63 68 73 75 80 81 88 96 99 102 103 107 109 108 102 96 92 86 86 88 91 94 96 101 104 106 112 117
193 164 105 141 159 181 190 170 175 208 148 141 156 161 164 182 188 182 201 197 175 189 181 184 194 197 183 178 172 180 181 175 174 176 176 176 179 183 185 187 189 191 192 192 194 196 198 200 196 192 185 183 183 182 184 192 194 188 184 176 162 148 136 120 108 97 84 68 63 63 64 70 72 79 88 95 100 101 109 113 117 117 111 108 101 96 90 86 86 88 92 95 101 101 103 112 118
186 177 187 158 171 201 176 174 184 162 126 140 159 169 170 170 187 190 195 191 177 190 190 195 200 209 194 180 179 178 178 177 177 177 179 180 181 186 189 191 192 194 196 195 196 197 199 202 202 202 195 189 188 188 190 196 202 203 202 199 195 185 168 150 129 116 96 74 74 69 58 66 70 75 86 94 98 101 109 113 119 119 112 111 104 99 92 84 84 84 87 93 103 107 111 122 129
182 197 195 170 175 174 174 179 176 120 143 160 172 180 179 167 176 184 185 184 184 194 199 206 203 208 197 178 177 179 178 178 181 182 183 185 185 188 192 193 195 197 198 198 199 199 201 202 203 206 204 198 194 194 195 200 205 208 212 212 211 208 195 184 160 144 118 99 89 80 63 68 71 73 85 91 94 98 107 111 115 117 110 107 100 96 91 83 81 82 87 98 114 122 133 163 183
171 204 199 192 175 137 168 171 163 157 145 154 171 182 184 174 168 176 187 182 179 192 201 210 208 203 194 183 178 181 182 181 185 188 189 191 191 193 195 196 199 200 201 201 201 201 203 204 204 206 207 205 202 201 202 205 208 212 218 216 216 217 210 207 193 178 165 158 137 118 104 99 89 83 88 89 92 97 105 110 105 105 103 100 89 65 68 68 64 68 71 97 142 152 166 196 217
184 216 208 174 147 124 179 175 162 139 140 148 164 178 183 171 167 178 191 175 185 207 201 202 212 205 194 187 184 183 186 187 189 193 195 197 196 198 200 200 202 204 205 206 206 206 205 205 207 207 208 209 207 208 209 213 212 213 221 221 220 222 217 215 211 203 194 194 194 183 169 161 146 117 105 98 104 107 111 115 107 105 101 111 135 92 2 357 4 5 348 302 248 208 196 212 228
177 212 247 112 145 143 168 183 166 132 146 153 151 165 179 171 174 180 180 176 201 221 213 204 209 204 199 193 189 189 190 192 194 196 199 200 201 202 204 205 207 208 208 209 210 210 209 208 209 209 210 211 212 211 214 218 218 218 221 223 224 225 223 220 218 215 208 206 209 210 204 191 183 168 150 136 140 143 140 138 134 133 129 146 180 202 232 260 283 291 297 290 279 260 238 235 238
159 207 353 81 157 142 154 182 180 153 146 151 145 160 173 169 179 186 188 200 205 216 219 215 213 207 204 201 198 195 193 196 198 199 201 203 205 206 206 208 209 210 211 212 212 213 213 212 211 212 213 214 215 214 218 221 222 224 225 225 227 228 228 226 224 222 218 215 214 219 218 207 204 199 189 181 179 179 177 172 172 174 168 182 205 219 236 250 267 281 287 290 288 277 266 258 252
202 154 32 114 124 100 152 174 186 173 156 156 157 166 166 166 185 195 201 218 214 208 221 219 218 216 212 208 208 203 196 199 202 204 205 206 209 210 210 211 212 213 216 217 215 216 215 215 214 213 215 216 217 217 219 222 223 227 230 228 229 230 231 231 229 226 224 223 221 222 224 220 213 208 205 202 201 201 200 199 198 199 200 210 222 230 241 249 263 275 283 291 290 284 277 270 266
245 143 137 141 87 106 163 175 180 174 176 172 167 165 167 177 188 195 211 223 220 223 224 214 217 216 215 212 211 212 205 203 206 208 208 210 213 214 214 214 215 216 220 221 219 219 218 218 218 215 216 216 218 218 218 222 222 225 231 231 231 232 232 234 234 231 229 228 227 226 228 228 223 217 213 210 210 212 213 214 215 215 217 226 232 236 244 251 259 268 278 286 289 288 280 275 271
248 144 146 143 86 118 159 170 169 171 184 175 166 161 173 189 189 203 220 224 222 226 221 203 207 207 211 212 211 214 213 209 208 209 209 211 214 214 215 216 216 216 219 221 222 224 221 219 219 219 218 217 218 219 219 222 221 224 232 233 233 233 232 234 236 236 234 232 231 230 231 231 229 226 221 218 217 218 220 223 226 228 229 233 236 241 246 250 256 262 269 275 280 283 278 276 270
184 123 133 137 99 110 124 143 157 166 169 164 161 146 169 189 199 234 232 230 226 227 225 218 206 203 208 210 212 214 215 214 212 211 211 212 214 215 217 219 218 218 219 221 223 225 223 219 219 221 221 220 220 219 219 221 221 225 232 233 236 237 234 234 237 239 238 235 233 232 234 235 233 232 228 227 224 223 224 225 231 235 236 238 241 244 247 250 257 261 266 268 270 272 270 270 265
139 120 105 110 103 106 113 133 146 152 157 166 164 128 138 174 195 239 230 231 229 225 227 225 221 214 211 212 215 216 217 218 216 215 215 214 215 215 216 219 219 220 220 222 223 224 225 223 221 223 224 223 223 222 221 221 221 225 232 237 240 243 242 240 241 244 245 242 237 230 230 234 238 239 236 235 233 230 228 228 231 235 239 242 244 247 250 253 256 260 265 268 269 270 267 261 258
134 127 101 89 97 102 97 127 139 140 156 173 153 108 99 141 200 232 207 214 221 220 224 226 226 224 219 217 217 218 218 218 219 218 218 217 216 215 214 216 218 219 220 223 225 225 226 227 226 226 225 225 225 224 224 225 223 221 230 238 238 240 249 253 251 252 260 264 254 239 230 230 234 238 239 240 241 239 236 234 233 235 240 242 245 249 253 256 257 260 266 271 274 274 270 263 257
136 135 116 111 122 111 84 113 150 160 167 164 147 126 187 196 216 219 200 197 202 212 219 223 226 226 223 222 220 220 220 220 221 219 219 221 221 219 218 218 219 219 221 223 227 228 228 229 229 228 227 227 228 226 224 226 225 223 229 237 242 248 252 253 256 256 263 275 270 258 246 238 238 237 237 238 239 240 244 243 240 240 244 245 246 248 251 256 258 260 266 273 276 275 272 266 258
142 142 144 145 171 161 96 79 167 184 162 160 166 212 213 208 217 207 201 203 197 205 215 219 223 224 223 224 223 223 224 223 223 220 218 220 220 220 221 221 222 222 223 225 226 229 230 231 229 228 229 229 230 231 227 225 224 225 229 233 239 247 247 246 252 251 252 264 270 269 268 263 263 256 253 250 242 242 247 249 246 244 248 251 250 250 251 255 258 261 265 268 270 270 268 264 257
139 144 196 171 196 172 102 64 179 180 163 168 193 248 221 188 203 207 206 204 205 210 214 219 222 223 223 224 225 226 226 227 226 223 219 217 217 218 220 221 222 224 226 226 227 229 232 234 233 232 231 230 231 233 232 230 226 225 228 227 229 234 236 241 248 246 248 258 259 263 273 273 279 282 283 278 259 251 249 248 250 248 249 252 249 248 248 249 252 255 258 260 262 262 261 261 258
116 171 179 187 220 172 109 95 5 187 161 180 210 244 240 169 158 199 212 214 219 224 224 226 225 226 226 225 227 228 228 228 227 225 221 218 218 218 219 220 222 224 226 227 228 230 232 233 235 236 236 235 234 234 235 238 235 230 229 230 231 236 240 246 248 246 248 255 254 258 267 267 270 278 279 282 274 263 249 241 249 254 252 253 252 252 251 249 248 247 250 255 259 261 263 262 260
198 225 175 168 204 181 150 138 34 346 150 195 227 274 257 141 129 185 197 210 221 230 232 231 229 230 231 230 229 230 230 230 228 225 222 221 220 220 221 222 224 226 228 229 230 231 233 233 234 236 239 241 242 243 242 245 243 233 228 232 236 240 246 250 249 248 252 258 257 255 261 261 263 271 267 265 267 264 257 248 252 259 252 249 253 255 256 255 252 249 249 251 257 264 268 264 260
162 256 112 147 210 189 180 151 107 288 209 213 217 254 253 157 110 179 177 186 216 233 236 233 232 233 235 235 233 232 231 231 230 225 223 223 223 223 225 226 227 230 231 233 234 235 235 236 235 234 237 240 242 245 245 248 246 234 231 238 239 234 237 242 246 253 255 255 253 251 259 258 255 266 265 257 260 261 259 256 257 262 255 249 249 251 256 258 257 255 252 250 253 261 268 268 262
165 180 174 171 225 227 213 162 125 173 220 222 200 236 250 239 207 202 204 233 256 253 253 246 237 236 237 237 235 234 233 233 231 227 225 225 224 224 226 229 231 232 234 234 235 236 236 236 236 234 233 235 237 239 240 241 241 236 237 240 237 232 232 236 243 252 251 248 250 251 260 260 252 263 266 257 262 265 262 262 260 263 261 257 253 250 256 261 259 258 255 252 251 256 262 268 265
176 181 188 180 184 218 227 71 20 281 207 218 216 230 252 249 234 225 229 250 260 259 264 260 246 237 236 236 235 233 235 235 232 230 229 229 229 229 231 234 235 235 234 234 234 235 235 235 235 235 233 234 235 235 233 233 234 235 238 238 232 230 231 231 234 241 242 244 250 250 255 258 253 258 261 257 263 267 270 270 263 262 268 268 263 256 257 265 267 265 261 256 255 258 260 263 266
176 165 194 187 177 181 145 84 21 333 227 220 227 245 262 260 251 244 242 254 260 255 258 259 254 246 238 236 237 236 237 237 233 231 231 231 233 234 235 236 236 234 232 232 232 232 233 234 234 235 234 236 237 236 234 232 232 235 239 241 238 235 234 231 230 235 241 244 249 249 250 254 254 253 253 258 265 266 272 275 265 264 273 276 273 265 261 265 270 271 264 258 259 262 260 259 264
171 186 181 186 216 171 90 79 57 25 246 223 256 268 260 259 262 261 249 247 253 250 250 254 255 253 247 240 239 239 239 238 236 233 231 231 233 234 235 235 234 232 231 231 231 231 232 234 235 234 234 235 236 238 239 238 237 238 241 245 247 245 242 238 235 236 241 242 244 246 246 251 254 250 249 259 266 263 267 272 265 266 275 278 275 272 267 265 266 266 261 258 260 262 261 259 259
159 188 180 190 196 132 106 122 77 58 243 241 33 270 261 262 265 263 251 243 249 250 250 253 254 253 251 246 243 241 239 238 237 234 230 229 231 233 233 234 233 232 231 231 230 231 232 234 235 235 235 235 236 237 239 241 240 239 240 242 244 244 245 244 239 237 239 240 240 243 246 251 250 244 246 257 260 259 265 270 269 271 276 277 274 272 271 269 269 267 263 262 261 261 262 261 259
164 168 185 190 163 176 208 166 124 53 288 320 345 284 275 263 256 258 246 239 247 252 251 252 251 250 250 248 245 242 239 239 238 235 231 230 232 234 234 234 234 233 233 231 229 230 233 235 236 236 237 237 237 238 239 240 240 237 236 237 237 238 240 241 237 237 239 239 240 243 248 252 247 243 248 254 254 259 268 270 269 270 273 276 277 275 271 269 271 273 271 267 261 260 264 266 264
215 207 199 181 170 198 337 123 135 118 201 249 303 283 276 248 239 249 234 227 246 250 251 251 249 247 247 247 245 243 240 240 241 240 238 238 239 240 240 238 236 234 233 231 230 233 238 240 239 238 239 238 237 237 238 238 238 236 234 233 231 231 232 232 230 233 235 236 239 242 247 249 247 247 252 255 256 260 266 266 266 268 271 273 274 274 271 267 269 276 277 273 266 264 269 272 269
215 221 212 198 175 165 101 128 146 186 209 176 337 262 259 187 231 243 230 255 249 243 247 249 247 245 244 245 244 243 244 244 245 246 245 244 244 244 243 241 239 237 234 232 233 238 242 242 240 238 238 237 235 234 234 236 237 237 236 234 232 233 234 233 233 235 236 238 241 244 248 250 250 251 254 257 258 258 259 261 263 266 270 271 270 271 270 266 269 274 275 274 271 269 270 271 268
210 216 192 150 149 141 136 158 173 212 209 86 332 246 253 261 226 224 2 292 262 243 243 248 246 243 242 242 244 245 246 248 249 250 250 250 248 245 242 241 240 239 237 235 236 238 239 239 237 235 235 234 232 231 230 233 235 236 237 237 238 239 241 243 244 245 245 247 248 247 248 247 245 246 248 251 253 253 255 258 262 266 269 271 271 270 268 267 269 272 272 270 271 271 267 265 267
193 155 161 145 147 153 159 170 189 242 94 112 236 259 266 266 239 119 31 284 267 246 239 245 244 243 244 244 246 247 248 249 250 250 250 246 242 240 240 242 243 241 238 236 235 236 234 232 231 231 231 229 227 227 228 231 234 236 237 238 239 240 242 245 247 247 247 248 247 245 245 244 241 242 245 248 250 252 255 259 263 267 269 271 270 268 267 268 268 267 267 266 266 269 267 262 266
230 91 142 137 137 144 159 169 162 59 244 203 178 159 249 255 234 118 19 269 258 245 234 235 234 237 242 241 242 243 245 246 246 245 240 232 230 234 240 243 242 238 235 232 231 232 231 227 226 226 225 224 224 224 226 229 231 234 236 237 238 239 241 243 243 243 242 242 243 243 245 246 246 248 250 253 255 257 259 261 264 266 269 270 271 270 270 269 267 263 263 263 263 267 269 264 264
141 138 103 92 88 85 121 169 141 131 239 220 160 120 253 252 213 167 179 247 246 241 227 219 218 221 225 229 234 239 242 244 243 240 233 229 229 232 236 237 234 230 228 226 226 227 225 222 220 221 221 221 221 222 224 227 229 231 233 234 236 237 238 240 241 240 239 239 242 244 245 248 252 254 256 258 259 259 260 261 263 266 270 273 276 277 275 271 268 264 262 262 262 263 265 265 265
139 143 113 100 93 82 98 91 120 189 231 223 92 20 278 265 233 194 203 233 245 246 236 191 181 193 198 212 230 238 242 243 241 237 231 228 229 231 234 233 232 230 228 227 226 223 220 218 216 217 218 219 219 221 223 225 229 232 234 235 236 237 237 239 240 240 240 241 243 246 249 252 253 255 256 256 257 258 261 264 265 268 274 280 283 285 283 277 273 269 264 263 262 259 259 262 265
145 157 139 118 110 136 146 135 191 220 223 124 51 339 250 240 240 186 232 302 283 255 261 154 146 161 167 190 222 229 229 226 222 221 220 220 222 226 228 226 224 223 223 224 223 220 216 213 213 214 215 217 218 219 221 225 229 233 235 236 237 237 237 239 240 241 242 243 245 248 251 252 252 253 254 256 259 261 264 267 272 278 283 287 290 290 289 285 279 274 268 264 262 260 260 261 263
220 168 160 156 149 165 189 183 199 229 224 67 34 300 237 244 256 261 271 275 249 237 243 228 197 202 193 182 200 202 198 194 193 197 201 204 208 211 211 211 210 212 215 217 216 215 213 210 211 213 214 216 217 218 221 225 231 234 236 238 238 238 238 239 240 241 243 244 246 247 248 250 252 253 255 259 263 264 266 272 279 286 288 288 290 291 291 290 285 279 273 266 260 259 259 260 262
199 173 175 179 157 169 195 176 228 254 227 54 323 269 250 258 263 252 254 266 268 240 242 245 252 248 227 208 206 195 181 173 174 180 186 192 197 199 201 202 204 207 210 213 213 212 211 210 210 211 212 214 215 218 222 226 231 233 235 237 237 236 237 237 238 240 242 243 244 246 248 250 252 254 258 261 265 267 271 278 282 283 284 285 287 288 289 289 284 280 277 270 263 259 258 258 261
196 176 183 188 171 188 199 179 213 220 105 85 163 229 230 222 48 253 255 286 290 257 246 249 249 243 235 234 225 195 178 167 166 173 179 187 193 195 199 202 203 206 206 209 211 211 210 210 209 210 210 213 215 218 222 226 230 231 233 234 233 233 234 235 236 237 239 240 243 246 248 250 252 254 259 262 266 271 274 278 279 280 281 282 284 285 287 287 284 279 275 272 267 262 259 258 259
190 15 296 212 180 144 140 101 155 118 66 152 181 245 247 264 309 287 260 273 272 258 252 250 247 244 240 241 229 190 177 167 164 168 169 174 184 189 195 199 200 202 202 204 206 207 208 206 206 206 206 209 210 214 219 223 226 228 231 232 232 233 234 236 237 238 239 241 243 245 246 248 250 254 259 263 267 270 273 275 278 280 281 281 283 284 285 286 284 280 275 271 268 263 261 260 259
157 165 186 208 66 102 119 115 69 38 255 194 166 250 261 292 286 278 237 248 257 245 247 245 242 243 240 234 216 186 177 171 167 166 165 167 172 178 183 187 190 192 193 196 197 198 199 197 197 196 195 197 200 206 213 218 223 227 232 235 236 239 240 241 242 242 242 242 242 243 244 247 250 254 259 262 265 268 272 276 278 280 281 282 282 283 284 284 282 279 275 272 269 265 263 262 259
147 177 168 143 39 60 139 188 127 172 242 208 160 242 258 244 256 290 352 247 236 199 216 243 240 240 234 222 204 186 180 177 174 170 173 176 173 173 174 175 178 180 182 185 185 185 184 182 182 183 183 187 193 201 208 215 225 232 238 243 245 247 249 249 248 246 244 243 243 244 246 248 251 255 258 261 266 271 275 278 280 281 281 281 281 281 283 283 280 277 273 270 268 264 262 261 259
10 196 142 127 200 203 185 190 171 185 227 241 197 241 262 218 217 314 289 239 239 210 194 227 233 229 220 211 199 189 182 178 180 181 184 185 181 178 175 172 172 172 173 175 172 170 169 169 171 173 177 184 194 205 214 224 235 243 249 253 254 256 257 256 255 253 251 250 249 249 249 251 253 255 260 264 269 274 277 279 280 280 279 279 279 280 281 282 281 277 272 268 265 262 262 262 260
41 127 125 347 267 219 188 160 171 203 211 238 231 226 241 214 200 229 235 233 237 221 200 214 225 221 216 209 198 188 181 178 185 186 186 186 181 179 177 174 171 168 166 166 165 164 163 166 170 173 182 194 205 218 229 237 245 250 255 258 259 261 261 262 261 260 260 258 256 254 254 256 258 260 263 267 271 274 276 277 277 277 277 277 277 278 279 281 282 280 273 268 265 262 262 264 263
155 170 173 183 157 26 230 149 61 226 202 215 244 247 243 213 172 207 227 235 197 208 248 242 230 224 217 208 195 186 179 176 178 174 172 172 169 169 170 170 172 170 167 165 165 167 168 171 177 184 196 208 218 229 237 245 251 254 258 261 263 264 264 266 267 267 266 264 261 261 262 264 265 265 267 270 272 275 276 276 276 276 275 275 276 277 279 281 282 282 278 272 267 263 262 264 264
159 189 185 181 155 128 193 197 112 348 244 195 233 270 263 175 159 215 231 270 70 235 267 263 242 231 217 201 190 184 172 164 163 160 155 152 149 150 151 154 163 168 170 171 171 174 180 186 194 202 211 219 228 238 244 250 253 256 260 263 264 267 268 269 271 270 270 268 266 266 266 266 265 265 268 272 275 277 278 278 277 276 275 274 275 277 280 281 282 282 281 277 271 264 261 262 263